Location: Rounton
(54.4000°N, 1.3500°W)
Time: 05:55:27
(UTC+00:00)

SR - Pass Details

Date: 04 December 2021
Orbit: 582 x 872 km, 66.7° (Epoch: 23 January)

Event Time Altitude Azimuth Distance (km) Brightness Sun altitude
Exits shadow 04:52:52 18° 16° (NNE) 1,466 ? -27.0°
Drops below altitude 10° 04:55:43 10° 58° (ENE) 1,927 ? -26.6°
Sets 04:58:37 0° 78° (ENE) 2,853 ? -26.1°
